[[{"header":{"parameterUnit":"m.s-1","parameterCategory":1,"la1":30.2991,"la2":30.254,"lo1":-89.0895,"lo2":-89.0444,"dy":0.0017,"dx":0.0017,"nx":28,"ny":28,"refTime":"2024-03-18T03:00:00:Z","depth":0,"parameterNumber":2,"parameterNumberName":"U-component_of_WINDS"},"data":[0,0,0,0,0,0,0,0,0,0,0,0,0,0,0,0,0,0,0,0,0,0,0,0,0,0,0,0,0,0,0,0,0,0,0,0,0,0,0,0,0,0,0,0,0,0,0,0,0,0,0,0,0,0,0,0,0,0,2.4366,2.4366,0,2.4422,2.4423,2.4424,2.444,2.444,2.444,2.4439,2.4497,2.4499,2.45,0,0,0,0,0,0,0,0,0,0,0,0,0,2.4273,2.4275,2.4366,2.4366,2.4367,2.4422,2.4423,2.4424,2.444,2.444,2.444,2.4439,2.4496,2.4498,2.45,0,0,0,0,0,0,0,0,0,0,0,0,0,2.432,2.4275,2.4366,2.4382,2.4384,2.4422,2.4423,2.4424,2.444,2.444,2.4439,2.4439,2.4495,2.4498,2.4501,2.4526,0,0,2.4509,2.451,0,0,0,0,0,0,0,0,2.4317,2.4323,2.4379,2.4381,2.4383,2.4424,2.4411,2.4458,2.444,2.4419,2.4439,2.4439,2.4473,2.4477,2.4489,2.4529,2.4532,2.4509,2.4511,2.4512,2.4513,0,0,0,0,0,0,0,2.4314,2.4321,2.4388,2.438,2.4382,2.4387,2.4393,2.442,2.4448,2.4421,2.4422,2.4429,2.4474,2.4486,2.449,2.4532,2.4509,2.4512,2.4513,2.4514,2.4599,2.4599,0,0,0,0,0,0,2.4308,2.4318,2.4386,2.439,2.4348,2.4389,2.4396,2.4411,2.4447,2.4453,2.4429,2.4429,2.4482,2.4487,2.4492,2.4526,2.4512,2.4515,2.4516,2.4598,2.4599,2.46,0,0,0,0,0,0,2.4306,2.4314,2.4384,2.4354,2.4364,2.4391,2.4408,2.4413,2.4425,2.4454,2.4459,2.4437,2.4482,2.4489,2.4518,2.4528,2.4516,2.4518,2.4597,2.4598,2.4599,2.4592,0,0,0,0,0,0,2.4303,2.4313,2.4322,2.4354,2.4365,2.4409,2.4409,2.4414,2.443,2.4431,2.4462,2.4467,2.4482,2.4514,2.4521,2.4532,2.452,2.4597,2.4598,2.4599,2.4592,2.4593,2.4594,0,0,0,0,0,2.43,2.4318,2.4323,2.4331,2.4378,2.4409,2.4415,2.4432,2.443,2.4441,2.4459,2.4466,2.4526,2.4517,2.4525,2.4536,2.4596,2.4597,2.4599,2.4591,2.4593,2.4594,0,0,0,0,0,0,2.4285,2.4322,2.4328,2.4357,2.438,2.4412,2.4425,2.4433,2.4457,2.4456,2.4477,2.4484,2.4512,2.4528,2.4517,2.4564,2.4561,2.4564,2.4553,2.4555,2.4556,2.4551,2.4523,0,0,0,0,0,2.4286,2.4308,2.4339,2.4361,2.4373,2.4397,2.4411,2.4423,2.4447,2.4457,2.4478,2.4501,2.4526,2.4541,2.4565,2.4595,2.4602,2.4607,2.4608,2.4608,2.4611,2.4629,2.4631,2.4604,2.4604,2.4604,0,0,2.4286,2.4309,2.4322,2.4359,2.4378,2.4401,2.4405,2.4429,2.4446,2.446,2.449,2.4506,2.4534,2.4564,2.4578,2.4578,2.462,2.461,2.4611,2.4612,2.4631,2.4633,2.4635,2.4605,2.4605,2.4605,0,0,2.4299,2.4318,2.434,2.4359,2.4389,2.4405,2.441,2.4442,2.4453,2.4484,2.4495,2.4517,2.4558,2.4578,2.4593,2.4616,2.4623,2.4624,2.4629,2.4646,2.4649,2.4651,2.4659,2.4662,2.4626,2.4626,2.4626,0,2.4296,2.4331,2.435,2.4374,2.4391,2.4406,2.4428,2.4446,2.4482,2.4493,2.4492,2.4546,2.4565,2.4601,2.4607,2.4619,2.4626,2.462,2.4647,2.4649,2.4651,2.466,2.4663,2.4626,2.4626,2.4626,2.4626,0,2.4326,2.435,2.4364,2.4399,2.4418,2.4441,2.4464,2.448,2.4491,2.4508,2.454,2.4564,2.4594,2.4604,2.4614,2.4641,2.464,2.4643,2.464,2.4653,2.4662,2.4665,2.4626,2.4626,2.4626,2.4626,0,0,2.4329,2.4376,2.4381,2.4398,2.4432,2.4452,2.4476,2.4506,2.452,2.4545,2.4566,2.4602,2.4606,2.4623,2.4636,2.4652,2.467,2.4653,2.4654,2.4655,2.4703,2.4701,2.4704,2.4675,2.4676,2.4677,2.4701,0,2.4347,2.4391,2.441,2.4446,2.4469,2.4485,2.4507,2.4531,2.4548,2.457,2.4589,2.4615,2.4617,2.4628,2.4644,2.4664,2.468,2.4663,2.4696,2.4697,2.4688,2.4708,2.4705,2.4727,2.4704,2.4705,2.4705,0,2.4372,2.4398,2.4436,2.447,2.448,2.4499,2.4529,2.4551,2.4579,2.459,2.4611,2.4624,2.4651,2.4648,2.4686,2.4674,2.4689,2.4702,2.4703,2.4706,2.4701,2.4712,2.4734,2.4737,2.4711,2.471,2.471,0,2.4372,2.4416,2.4445,2.4459,2.4498,2.4511,2.4529,2.4556,2.4574,2.46,2.4612,2.4641,2.4657,2.468,2.47,2.4696,2.4737,2.4735,2.4748,2.4747,2.4755,2.4754,2.4779,2.4765,2.4765,2.4765,2.4765,0,2.4389,2.4411,2.4445,2.4463,2.449,2.4512,2.4538,2.4556,2.4581,2.4603,2.4619,2.464,2.4666,2.469,2.4707,2.4737,2.4744,2.4754,2.4758,2.4752,2.4751,2.4762,2.4761,2.4766,2.4766,2.4766,2.4765,0,2.4392,2.4415,2.4448,2.4483,2.4493,2.4511,2.4542,2.456,2.4579,2.4607,2.4615,2.4644,2.4674,2.4697,2.4735,2.4746,2.4778,2.4782,2.4768,2.477,2.4782,2.478,2.4815,2.4821,2.4802,2.4803,2.4803,0,2.4401,2.4419,2.4457,2.4473,2.449,2.4516,2.4535,2.4558,2.4577,2.4611,2.4626,2.4657,2.4682,2.4729,2.4754,2.4784,2.4789,2.4799,2.4793,2.4788,2.479,2.4788,2.479,2.4799,2.4799,2.48,2.48,0,2.4415,2.4426,2.4452,2.4482,2.4504,2.4529,2.4554,2.4567,2.4595,2.4615,2.4646,2.4666,2.4706,2.4737,2.477,2.4788,2.4799,2.4802,2.4806,2.48,2.4791,2.4797,2.477,2.48,2.48,2.48,2.48,2.48,2.4421,2.4438,2.4469,2.4497,2.4519,2.4543,2.4563,2.4584,2.4611,2.4645,2.4658,2.469,2.4719,2.4765,2.4784,2.4809,2.481,2.4816,2.4818,2.4819,2.4819,2.4788,2.4815,2.4815,2.4815,2.4815,2.4815,0,2.4436,2.4457,2.4483,2.4519,2.4542,2.4551,2.458,2.4599,2.4627,2.4653,2.4679,2.4715,2.4746,2.4774,2.4806,2.4821,2.4827,2.4829,2.4828,2.4832,2.4816,2.4809,2.4824,2.4824,2.4824,2.4824,2.4824,2.4824,2.4446,2.4477,2.4492,2.4534,2.4555,2.4586,2.4602,2.4625,2.4647,2.4686,2.4712,2.4731,2.4758,2.4793,2.4822,2.4829,2.4841,2.4841,2.485,2.4834,2.4833,2.4832,2.4825,2.4843,2.4843,2.4864,2.4864,2.4864]},{"header":{"parameterUnit":"m.s-1","parameterCategory":1,"la1":30.2991,"la2":30.254,"lo1":-89.0895,"lo2":-89.0444,"dy":0.0017,"dx":0.0017,"nx":28,"ny":28,"refTime":"2024-03-18T03:00:00:Z","depth":0,"parameterNumber":3,"parameterNumberName":"V-component_of_WINDS"},"data":[0,0,0,0,0,0,0,0,0,0,0,0,0,0,0,0,0,0,0,0,0,0,0,0,0,0,0,0,0,0,0,0,0,0,0,0,0,0,0,0,0,0,0,0,0,0,0,0,0,0,0,0,0,0,0,0,0,0,-5.8121,-5.8122,0,-5.8152,-5.8152,-5.8152,-5.8122,-5.8121,-5.812,-5.8119,-5.8146,-5.8148,-5.815,0,0,0,0,0,0,0,0,0,0,0,0,0,-5.8037,-5.8039,-5.8121,-5.8122,-5.8122,-5.8151,-5.8152,-5.8152,-5.8123,-5.8121,-5.812,-5.8118,-5.8146,-5.8148,-5.815,0,0,0,0,0,0,0,0,0,0,0,0,0,-5.8071,-5.8039,-5.8121,-5.8111,-5.811,-5.8151,-5.8152,-5.8152,-5.8123,-5.8121,-5.8119,-5.8118,-5.8145,-5.8148,-5.815,-5.8202,0,0,-5.8159,-5.816,0,0,0,0,0,0,0,0,-5.8069,-5.8074,-5.8112,-5.8112,-5.8111,-5.8131,-5.8132,-5.8169,-5.8123,-5.8118,-5.8119,-5.8117,-5.8143,-5.8145,-5.8155,-5.8203,-5.8205,-5.8159,-5.8161,-5.8162,-5.8162,0,0,0,0,0,0,0,-5.8067,-5.8072,-5.8133,-5.8113,-5.8112,-5.8104,-5.8107,-5.8139,-5.814,-5.8118,-5.8116,-5.812,-5.8142,-5.8152,-5.8155,-5.8205,-5.8159,-5.8161,-5.8163,-5.8164,-5.83,-5.8302,0,0,0,0,0,0,-5.8066,-5.8071,-5.8132,-5.8134,-5.8085,-5.8107,-5.8111,-5.8127,-5.8139,-5.8139,-5.8122,-5.8119,-5.8148,-5.8152,-5.8156,-5.8219,-5.8162,-5.8164,-5.8166,-5.8298,-5.8301,-5.8303,0,0,0,0,0,0,-5.8064,-5.8072,-5.8131,-5.8102,-5.8109,-5.8111,-5.8129,-5.8128,-5.8138,-5.8142,-5.8142,-5.8132,-5.8147,-5.8152,-5.8192,-5.822,-5.8165,-5.8168,-5.8296,-5.8299,-5.8302,-5.8345,0,0,0,0,0,0,-5.8062,-5.8071,-5.8091,-5.8103,-5.8111,-5.8167,-5.8131,-5.813,-5.8144,-5.814,-5.8152,-5.8152,-5.8146,-5.8188,-5.8194,-5.8222,-5.817,-5.8293,-5.8297,-5.8301,-5.8341,-5.8349,-5.8356,0,0,0,0,0,-5.8059,-5.81,-5.8092,-5.81,-5.8136,-5.8168,-5.8173,-5.8166,-5.8146,-5.8166,-5.8169,-5.8151,-5.8216,-5.8192,-5.8199,-5.8228,-5.8291,-5.8296,-5.83,-5.8337,-5.8347,-5.8355,0,0,0,0,0,0,-5.8089,-5.8102,-5.8092,-5.8139,-5.8153,-5.8163,-5.8188,-5.8176,-5.8196,-5.8191,-5.8181,-5.8184,-5.8227,-5.8231,-5.8205,-5.828,-5.825,-5.8256,-5.8276,-5.8285,-5.8292,-5.829,-5.8172,0,0,0,0,0,-5.8102,-5.8129,-5.8137,-5.8178,-5.8186,-5.8186,-5.82,-5.8194,-5.8208,-5.8213,-5.8218,-5.8232,-5.8255,-5.827,-5.8291,-5.8342,-5.8344,-5.8365,-5.8373,-5.8379,-5.8384,-5.8413,-5.8423,-5.8317,-5.8317,-5.8317,0,0,-5.8128,-5.8138,-5.8154,-5.8184,-5.8194,-5.8222,-5.8191,-5.822,-5.8241,-5.8217,-5.8255,-5.826,-5.8274,-5.832,-5.834,-5.8325,-5.8414,-5.8384,-5.8389,-5.8391,-5.8418,-5.8428,-5.8437,-5.832,-5.832,-5.8319,0,0,-5.8188,-5.8198,-5.8234,-5.8246,-5.8263,-5.8263,-5.8272,-5.8285,-5.8288,-5.8327,-5.831,-5.8334,-5.8373,-5.8385,-5.8396,-5.8465,-5.8451,-5.8472,-5.8511,-5.8539,-5.8547,-5.8555,-5.858,-5.859,-5.8478,-5.8478,-5.8478,0,-5.8217,-5.8259,-5.8254,-5.8286,-5.83,-5.8282,-5.8319,-5.833,-5.8352,-5.8363,-5.8346,-5.8397,-5.8405,-5.8455,-5.8472,-5.8481,-5.8491,-5.847,-5.8547,-5.8554,-5.8561,-5.8585,-5.8595,-5.848,-5.848,-5.848,-5.8479,0,-5.8295,-5.8325,-5.8351,-5.8376,-5.8393,-5.8427,-5.8427,-5.8445,-5.8439,-5.8441,-5.8482,-5.8492,-5.8516,-5.8527,-5.852,-5.8576,-5.8566,-5.8548,-5.8518,-5.8574,-5.8596,-5.8606,-5.8484,-5.8483,-5.8482,-5.8482,0,0,-5.8374,-5.8398,-5.8408,-5.842,-5.8439,-5.8461,-5.8495,-5.8521,-5.8537,-5.8554,-5.8582,-5.8618,-5.8603,-5.8615,-5.8609,-5.8634,-5.869,-5.8613,-5.8614,-5.8628,-5.8754,-5.8768,-5.8779,-5.8681,-5.8683,-5.8684,-5.8753,0,-5.8436,-5.8497,-5.8494,-5.8551,-5.8579,-5.8564,-5.8593,-5.8608,-5.8612,-5.8636,-5.8639,-5.8666,-5.8642,-5.865,-5.8674,-5.8678,-5.8715,-5.8673,-5.8708,-5.8709,-5.8705,-5.8791,-5.8805,-5.887,-5.8762,-5.8764,-5.8765,0,-5.8516,-5.8539,-5.8599,-5.8617,-5.8628,-5.8655,-5.868,-5.8703,-5.8719,-5.8721,-5.8737,-5.8728,-5.8762,-5.8732,-5.878,-5.8751,-5.8765,-5.877,-5.8772,-5.8775,-5.874,-5.8797,-5.889,-5.89,-5.8779,-5.8777,-5.8776,0,-5.857,-5.8615,-5.8657,-5.8668,-5.8689,-5.8708,-5.8718,-5.8733,-5.875,-5.8771,-5.8782,-5.8806,-5.8819,-5.8838,-5.8836,-5.8814,-5.8886,-5.8854,-5.8888,-5.8888,-5.8903,-5.8902,-5.9001,-5.8912,-5.8912,-5.8911,-5.8911,0,-5.864,-5.8677,-5.8682,-5.8708,-5.875,-5.8747,-5.8788,-5.8796,-5.881,-5.8837,-5.8825,-5.8851,-5.8846,-5.8872,-5.8871,-5.8912,-5.8917,-5.8919,-5.8918,-5.8921,-5.8921,-5.893,-5.8925,-5.8914,-5.8913,-5.8913,-5.8912,0,-5.8706,-5.871,-5.8756,-5.8773,-5.8779,-5.8809,-5.8824,-5.8848,-5.8852,-5.8887,-5.8895,-5.89,-5.893,-5.8931,-5.8964,-5.8963,-5.9014,-5.9007,-5.9009,-5.9008,-5.9042,-5.9039,-5.9149,-5.9164,-5.9065,-5.9066,-5.9067,0,-5.875,-5.8779,-5.8801,-5.882,-5.8831,-5.886,-5.8878,-5.8877,-5.8896,-5.8919,-5.8941,-5.8971,-5.8994,-5.9042,-5.9049,-5.9075,-5.907,-5.9107,-5.9073,-5.9075,-5.9071,-5.907,-5.9073,-5.9113,-5.9114,-5.9115,-5.9116,0,-5.8829,-5.8831,-5.8858,-5.8887,-5.8909,-5.893,-5.895,-5.8966,-5.8967,-5.8989,-5.9021,-5.9039,-5.9075,-5.9105,-5.913,-5.9139,-5.9128,-5.9127,-5.9136,-5.9139,-5.9139,-5.914,-5.9027,-5.9124,-5.9123,-5.9122,-5.9122,-5.9122,-5.8887,-5.8913,-5.8933,-5.8964,-5.898,-5.9,-5.9025,-5.9034,-5.9061,-5.9091,-5.9088,-5.9124,-5.9142,-5.9176,-5.9188,-5.9215,-5.9202,-5.9215,-5.9219,-5.9222,-5.9227,-5.9134,-5.922,-5.9219,-5.9219,-5.9219,-5.9219,0,-5.8966,-5.8979,-5.9008,-5.9038,-5.9063,-5.9053,-5.9075,-5.9096,-5.9128,-5.9147,-5.9172,-5.9209,-5.9238,-5.9248,-5.9277,-5.9297,-5.9293,-5.9305,-5.9303,-5.9306,-5.9236,-5.9226,-5.9308,-5.9308,-5.9308,-5.9308,-5.9308,-5.9308,-5.901,-5.9055,-5.906,-5.9112,-5.9125,-5.9161,-5.9175,-5.9194,-5.9209,-5.9252,-5.9277,-5.9285,-5.93,-5.933,-5.9357,-5.9359,-5.937,-5.9385,-5.9385,-5.9319,-5.931,-5.9302,-5.9292,-5.9387,-5.9387,-5.9452,-5.9453,-5.9453]}]]